TimeCST,TemperatureF,Dew PointF,Humidity,Sea Level PressureIn,VisibilityMPH,Wind Direction,Wind SpeedMPH,Gust SpeedMPH,PrecipitationIn,Events,Conditions,WindDirDegrees,DateUTC
12:15 AM,23.9,16.7,74,30.34,10.0,NE,5.8,-,N/A,,Clear,50,2013-03-06 06:15:00
12:35 AM,23.0,17.2,79,30.34,10.0,ENE,5.8,-,N/A,,Clear,60,2013-03-06 06:35:00
12:55 AM,23.0,16.9,77,30.34,10.0,ENE,4.6,-,N/A,,Clear,60,2013-03-06 06:55:00
1:15 AM,22.8,17.1,79,30.34,10.0,East,3.5,-,N/A,,Clear,90,2013-03-06 07:15:00
1:35 AM,22.1,16.5,79,30.34,10.0,Calm,Calm,-,N/A,,Clear,0,2013-03-06 07:35:00
1:55 AM,22.1,16.7,80,30.34,10.0,South,4.6,-,N/A,,Clear,170,2013-03-06 07:55:00
2:15 AM,21.9,16.2,78,30.35,10.0,SSE,3.5,-,N/A,,Clear,150,2013-03-06 08:15:00
2:35 AM,21.0,16.3,82,30.34,10.0,SSE,4.6,-,N/A,,Clear,150,2013-03-06 08:35:00
2:55 AM,19.4,15.3,84,30.32,10.0,East,10.4,-,N/A,,Clear,100,2013-03-06 08:55:00
3:15 AM,20.8,16.3,83,30.33,10.0,SSE,3.5,-,N/A,,Clear,160,2013-03-06 09:15:00
3:35 AM,20.8,15.8,81,30.32,10.0,SSE,3.5,-,N/A,,Clear,160,2013-03-06 09:35:00
3:55 AM,20.5,16.0,83,30.32,10.0,SE,4.6,-,N/A,,Clear,140,2013-03-06 09:55:00
4:15 AM,20.5,15.8,82,30.32,10.0,SSE,4.6,-,N/A,,Clear,150,2013-03-06 10:15:00
4:35 AM,19.4,15.3,84,30.32,10.0,SSE,4.6,-,N/A,,Clear,150,2013-03-06 10:35:00
4:55 AM,17.6,13.6,84,30.31,10.0,SE,5.8,-,N/A,,Clear,140,2013-03-06 10:55:00
5:15 AM,17.4,13.8,86,30.31,10.0,ESE,5.8,-,N/A,,Clear,120,2013-03-06 11:15:00
5:35 AM,18.3,15.3,88,30.32,10.0,ESE,5.8,-,N/A,,Clear,120,2013-03-06 11:35:00
5:55 AM,18.3,14.9,86,30.32,10.0,SE,4.6,-,N/A,,Clear,140,2013-03-06 11:55:00
6:15 AM,16.7,13.5,87,30.31,10.0,ESE,5.8,-,N/A,,Clear,120,2013-03-06 12:15:00
6:35 AM,17.2,14.0,87,30.31,10.0,SE,6.9,-,N/A,,Clear,130,2013-03-06 12:35:00
6:55 AM,18.5,14.9,86,30.31,10.0,SE,8.1,-,N/A,,Clear,130,2013-03-06 12:55:00
7:15 AM,18.5,14.9,86,30.32,10.0,SE,6.9,-,N/A,,Clear,130,2013-03-06 13:15:00
7:35 AM,19.4,15.8,86,30.31,10.0,SE,6.9,-,N/A,,Clear,130,2013-03-06 13:35:00
7:55 AM,20.7,16.9,85,30.31,10.0,SE,6.9,-,N/A,,Clear,140,2013-03-06 13:55:00
8:15 AM,22.1,18.0,84,30.32,10.0,SE,8.1,-,N/A,,Clear,140,2013-03-06 14:15:00
8:35 AM,23.0,18.3,82,30.32,10.0,SSE,10.4,-,N/A,,Clear,150,2013-03-06 14:35:00
8:55 AM,23.9,18.7,80,30.32,10.0,SE,11.5,-,N/A,,Clear,140,2013-03-06 14:55:00
9:15 AM,24.8,19.4,80,30.33,10.0,SE,10.4,-,N/A,,Clear,130,2013-03-06 15:15:00
9:35 AM,25.7,19.8,78,30.32,10.0,SE,9.2,-,N/A,,Clear,140,2013-03-06 15:35:00
9:55 AM,26.4,20.3,78,30.31,10.0,SSE,11.5,-,N/A,,Clear,160,2013-03-06 15:55:00
10:15 AM,27.5,20.7,75,30.31,10.0,SE,11.5,-,N/A,,Clear,130,2013-03-06 16:15:00
10:35 AM,28.8,20.3,71,30.30,10.0,SE,11.5,-,N/A,,Clear,130,2013-03-06 16:35:00
10:55 AM,29.3,20.7,70,30.30,10.0,SSE,11.5,-,N/A,,Clear,150,2013-03-06 16:55:00
11:15 AM,30.9,21.2,67,30.29,10.0,SSE,10.4,16.1,N/A,,Clear,150,2013-03-06 17:15:00
11:35 AM,31.5,21.6,67,30.28,10.0,SSE,10.4,-,N/A,,Clear,150,2013-03-06 17:35:00
11:55 AM,32.5,21.7,64,30.27,10.0,SSE,12.7,-,N/A,,Clear,150,2013-03-06 17:55:00
12:15 PM,34.0,21.6,60,30.26,10.0,SE,10.4,-,N/A,,Clear,130,2013-03-06 18:15:00
12:35 PM,34.9,21.7,59,30.24,10.0,SE,11.5,17.3,N/A,,Clear,130,2013-03-06 18:35:00
12:55 PM,36.1,22.1,57,30.22,10.0,SE,13.8,20.7,N/A,,Clear,140,2013-03-06 18:55:00
1:15 PM,37.4,22.3,54,30.20,10.0,SE,17.3,23.0,N/A,,Clear,140,2013-03-06 19:15:00
1:35 PM,38.3,22.5,53,30.18,10.0,SE,17.3,-,N/A,,Clear,140,2013-03-06 19:35:00
1:55 PM,39.2,23.2,53,30.17,10.0,SE,18.4,21.9,N/A,,Clear,130,2013-03-06 19:55:00
2:15 PM,40.1,23.4,51,30.17,10.0,SSE,15.0,-,N/A,,Clear,150,2013-03-06 20:15:00
2:35 PM,39.4,22.5,51,30.16,10.0,SSE,17.3,23.0,N/A,,Clear,160,2013-03-06 20:35:00
2:55 PM,40.3,23.2,51,30.15,10.0,SSE,16.1,20.7,N/A,,Clear,160,2013-03-06 20:55:00
3:15 PM,40.8,23.4,50,30.14,10.0,South,18.4,21.9,N/A,,Clear,170,2013-03-06 21:15:00
3:35 PM,40.5,23.5,51,30.14,10.0,SSE,16.1,21.9,N/A,,Clear,150,2013-03-06 21:35:00
3:55 PM,40.6,23.7,51,30.13,10.0,SSE,18.4,-,N/A,,Clear,160,2013-03-06 21:55:00
4:15 PM,40.5,23.9,52,30.13,10.0,SSE,18.4,24.2,N/A,,Clear,160,2013-03-06 22:15:00
4:35 PM,40.5,24.4,53,30.12,10.0,SSE,17.3,-,N/A,,Clear,150,2013-03-06 22:35:00
4:55 PM,40.5,24.8,54,30.10,10.0,SSE,16.1,-,N/A,,Clear,150,2013-03-06 22:55:00
5:15 PM,40.3,25.3,55,30.10,10.0,SE,17.3,20.7,N/A,,Clear,140,2013-03-06 23:15:00
5:35 PM,40.1,25.7,56,30.09,10.0,SSE,17.3,-,N/A,,Clear,150,2013-03-06 23:35:00
5:55 PM,39.2,25.7,58,30.08,10.0,SE,15.0,-,N/A,,Clear,140,2013-03-06 23:55:00
6:15 PM,38.3,25.0,59,30.08,10.0,SE,12.7,-,N/A,,Clear,140,2013-03-07 00:15:00
6:35 PM,36.9,24.8,62,30.07,10.0,SE,13.8,-,N/A,,Clear,140,2013-03-07 00:35:00
6:55 PM,36.5,24.6,62,30.08,10.0,SE,12.7,-,N/A,,Clear,140,2013-03-07 00:55:00
7:15 PM,35.6,24.6,64,30.08,10.0,SE,11.5,-,N/A,,Clear,130,2013-03-07 01:15:00
7:35 PM,34.5,24.4,67,30.07,10.0,SE,12.7,-,N/A,,Clear,130,2013-03-07 01:35:00
7:55 PM,34.2,23.7,66,30.07,10.0,SE,13.8,-,N/A,,Clear,130,2013-03-07 01:55:00
8:15 PM,33.8,23.5,66,30.06,10.0,SE,15.0,-,N/A,,Clear,130,2013-03-07 02:15:00
8:35 PM,32.9,23.5,68,30.06,10.0,SE,15.0,-,N/A,,Clear,130,2013-03-07 02:35:00
8:55 PM,32.4,23.7,70,30.07,10.0,SE,12.7,-,N/A,,Clear,130,2013-03-07 02:55:00
9:35 PM,32.0,23.9,72,30.07,10.0,SE,12.7,-,N/A,,Clear,140,2013-03-07 03:35:00
9:55 PM,32.0,24.4,74,30.06,10.0,SE,13.8,-,N/A,,Clear,140,2013-03-07 03:55:00
10:15 PM,32.0,24.8,75,30.07,10.0,SSE,11.5,-,N/A,,Clear,150,2013-03-07 04:15:00
10:35 PM,32.0,24.8,75,30.07,10.0,SSE,12.7,-,N/A,,Clear,150,2013-03-07 04:35:00
10:55 PM,32.2,24.8,74,30.06,10.0,SSE,15.0,-,N/A,,Clear,150,2013-03-07 04:55:00
11:15 PM,32.2,24.8,74,30.05,10.0,SSE,15.0,-,N/A,,Clear,150,2013-03-07 05:15:00
11:35 PM,32.2,24.8,74,30.05,10.0,SSE,16.1,-,N/A,,Clear,150,2013-03-07 05:35:00
11:55 PM,32.4,25.0,74,30.03,10.0,SSE,18.4,21.9,N/A,,Clear,150,2013-03-07 05:55:00